This is the latest recevied weather packets stored in our database for station/object WX9WTF. If no packets are shown the sender has not sent any weather packets the latest 10 day(s).
| Time | Temp. | Humidity | Pressure | Rain* | Wind** | Luminosity | Snow |
|---|---|---|---|---|---|---|---|
| 1777972562 | 8.89° C | 91% | 1008.4 hPa | 0 mm | - | 0 W/m² | - |
| 1777972260 | 8.89° C | 93% | 1008.7 hPa | 0 mm | - | 0 W/m² | - |
| 1777971958 | 8.89° C | 93% | 1008.6 hPa | 0 mm | - | 0 W/m² | - |
| 1777971656 | 8.89° C | 93% | 1008.6 hPa | 0 mm | - | 0 W/m² | - |
| 1777971353 | 8.89° C | 94% | 1008.2 hPa | 0 mm | - | 0 W/m² | - |
| 1777971051 | 8.89° C | 95% | 1008 hPa | 0 mm | - | 0 W/m² | - |
| 1777970749 | 8.89° C | 96% | 1007 hPa | 0 mm | - | 0 W/m² | - |
| 1777970447 | 8.33° C | 96% | 1006 hPa | 0 mm | - | 0 W/m² | - |
| 1777970144 | 8.33° C | 96% | 1005.8 hPa | 0 mm | - | 0 W/m² | - |
| 1777969840 | 8.89° C | 97% | 1005.2 hPa | 0.51 mm | - | 0 W/m² | - |
| 1777969536 | 8.89° C | 97% | 1004.2 hPa | 1.78 mm | - | 0 W/m² | - |
| 1777969233 | 8.89° C | 97% | 1005.1 hPa | 4.83 mm | - | 0 W/m² | - |
| 1777968929 | 8.89° C | 97% | 1006.8 hPa | 7.87 mm | - | 0 W/m² | - |
| 1777968627 | 8.89° C | 97% | 1008.3 hPa | 6.6 mm | - | 0 W/m² | - |
| 1777968323 | 9.44° C | 97% | 1008.9 hPa | 6.1 mm | - | 0 W/m² | - |
| 1777968020 | 9.44° C | 97% | 1009.4 hPa | 6.6 mm | - | 0 W/m² | - |
| 1777967716 | 9.44° C | 96% | 1009.9 hPa | 6.1 mm | - | 0 W/m² | - |
| 1777967413 | 10° C | 96% | 1009.9 hPa | 3.05 mm | - | 0 W/m² | - |
| 1777967110 | 10.56° C | 97% | 1010.2 hPa | 2.29 mm | - | 0 W/m² | - |
| 1777966807 | 10.56° C | 97% | 1010.1 hPa | 3.05 mm | - | 0 W/m² | - |
| 1777966504 | 10.56° C | 97% | 1010.3 hPa | 3.05 mm | - | 0 W/m² | - |
| 1777966202 | 10.56° C | 97% | 1009.4 hPa | 3.05 mm | - | 0 W/m² | - |
| 1777965898 | 11.11° C | 97% | 1008.9 hPa | 3.56 mm | - | 0 W/m² | - |
| 1777965594 | 11.11° C | 97% | 1008 hPa | 3.05 mm | - | 0 W/m² | - |
| 1777965290 | 11.11° C | 96% | 1007.6 hPa | 2.29 mm | - | 0 W/m² | - |
* Rain latest hour (hover to see other rain measurements)
** Current wind speed in m/s (hover to see current wind gust speed)